• In Belarus
  • List of Countries
  • For 7 days
  • Water Temperature
  • Satellite Maps
  • Weather Map
  • Weather Widgets
  • user-avatar
    Login

    Hourly Weather Drozdeevo

    Today, 24 June, Sunday

    Time Temperature Precipitation Wind Pressure Humidity
    00:00 +13°C° 0.3 mm 3 mps 739 mmHg 93%
    01:00 +14°C° 0.3 mm 3 mps 739 mmHg 95%
    02:00 +14°C° 0 mm 3 mps 738 mmHg 97%
    03:00 +16°C° 0 mm 3 mps 738 mmHg 97%
    04:00 +17°C° 0 mm 3 mps 738 mmHg 96%
    05:00 +18°C° 0 mm 3 mps 738 mmHg 96%
    06:00 +20°C° 0 mm 4 mps 738 mmHg 90%
    07:00 +22°C° 0 mm 4 mps 738 mmHg 83%
    08:00 +25°C° 0 mm 4 mps 738 mmHg 73%
    09:00 +27°C° 0 mm 4 mps 737 mmHg 66%
    10:00 +28°C° 0 mm 5 mps 737 mmHg 59%
    11:00 +30°C° 0 mm 5 mps 737 mmHg 51%
    12:00 +30°C° 0 mm 5 mps 737 mmHg 50%
    13:00 +32°C° 0 mm 5 mps 737 mmHg 48%
    14:00 +30°C° 0 mm 5 mps 738 mmHg 49%
    15:00 +29°C° 0.1 mm 4 mps 738 mmHg 54%
    16:00 +28°C° 0.1 mm 4 mps 739 mmHg 60%
    17:00 +27°C° 0.1 mm 3 mps 739 mmHg 66%
    18:00 +25°C° 0.5 mm 3 mps 739 mmHg 74%
    19:00 +22°C° 0.5 mm 3 mps 739 mmHg 82%
    20:00 +19°C° 0.5 mm 3 mps 739 mmHg 91%
    21:00 +18°C° 2.3 mm 2 mps 740 mmHg 92%
    22:00 +17°C° 2.3 mm 2 mps 740 mmHg 94%
    23:00 +16°C° 2.3 mm 2 mps 740 mmHg 95%

    Tomorrow, 25 June, Monday

    Time Temperature Precipitation Wind Pressure Humidity
    00:00 +16°C° 0.4 mm 2 mps 740 mmHg 95%
    01:00 +15°C° 0.4 mm 2 mps 741 mmHg 95%
    02:00 +13°C° 0.4 mm 3 mps 741 mmHg 95%
    03:00 +13°C° 1.3 mm 3 mps 741 mmHg 95%
    04:00 +12°C° 1.3 mm 3 mps 741 mmHg 94%
    05:00 +12°C° 1.3 mm 4 mps 741 mmHg 94%
    06:00 +13°C° 0.3 mm 4 mps 741 mmHg 87%
    07:00 +14°C° 0.3 mm 4 mps 742 mmHg 79%
    08:00 +15°C° 0.3 mm 4 mps 742 mmHg 72%
    09:00 +18°C° 0 mm 3 mps 743 mmHg 65%
    10:00 +20°C° 0 mm 3 mps 743 mmHg 57%
    11:00 +21°C° 0 mm 3 mps 743 mmHg 50%
    12:00 +22°C° 0 mm 3 mps 744 mmHg 48%
    13:00 +24°C° 0 mm 2 mps 744 mmHg 46%
    14:00 +24°C° 0 mm 2 mps 744 mmHg 44%
    15:00 +24°C° 0 mm 2 mps 744 mmHg 46%
    16:00 +24°C° 0 mm 2 mps 745 mmHg 48%
    17:00 +24°C° 0 mm 2 mps 745 mmHg 50%
    18:00 +21°C° 0 mm 2 mps 745 mmHg 58%
    19:00 +19°C° 0 mm 2 mps 745 mmHg 65%
    20:00 +17°C° 0 mm 2 mps 745 mmHg 72%
    21:00 +16°C° 0 mm 2 mps 746 mmHg 75%
    22:00 +15°C° 0 mm 2 mps 746 mmHg 77%
    23:00 +14°C° 0 mm 2 mps 746 mmHg 79%

    Day after tomorrow, 26 June, Tuesday

    Time Temperature Precipitation Wind Pressure Humidity
    00:00 +14°C° 0 mm 2 mps 747 mmHg 81%
    01:00 +13°C° 0 mm 2 mps 747 mmHg 83%
    02:00 +13°C° 0 mm 2 mps 747 mmHg 86%
    03:00 +14°C° 0 mm 1 mps 748 mmHg 83%
    04:00 +14°C° 0 mm 1 mps 748 mmHg 81%
    05:00 +15°C° 0 mm 1 mps 748 mmHg 78%
    06:00 +18°C° 0 mm 1 mps 749 mmHg 72%
    07:00 +20°C° 0 mm 1 mps 749 mmHg 65%
    08:00 +22°C° 0 mm 1 mps 749 mmHg 58%
    09:00 +23°C° 0 mm 1 mps 749 mmHg 54%
    10:00 +24°C° 0 mm 1 mps 749 mmHg 50%
    11:00 +25°C° 0 mm 1 mps 749 mmHg 46%
    12:00 +26°C° 0 mm 1 mps 749 mmHg 45%
    13:00 +26°C° 0 mm 1 mps 749 mmHg 44%
    14:00 +26°C° 0 mm 2 mps 749 mmHg 43%
    15:00 +26°C° 0 mm 1 mps 749 mmHg 45%
    16:00 +26°C° 0 mm 1 mps 749 mmHg 47%
    17:00 +25°C° 0 mm 1 mps 749 mmHg 49%
    18:00 +23°C° 0 mm 1 mps 749 mmHg 55%
    19:00 +21°C° 0 mm 1 mps 750 mmHg 62%
    20:00 +19°C° 0 mm 1 mps 750 mmHg 69%
    21:00 +19°C° 0 mm 1 mps 750 mmHg 71%
    22:00 +18°C° 0 mm 1 mps 750 mmHg 73%
    23:00 +16°C° 0 mm 1 mps 750 mmHg 76%

    27 June, Wednesday

    Time Temperature Precipitation Wind Pressure Humidity
    00:00 +15°C° 0 mm 1 mps 750 mmHg 77%
    01:00 +15°C° 0 mm 1 mps 750 mmHg 77%
    02:00 +14°C° 0 mm 1 mps 751 mmHg 78%
    03:00 +15°C° 0 mm 1 mps 751 mmHg 77%
    04:00 +16°C° 0 mm 1 mps 751 mmHg 75%
    05:00 +18°C° 0 mm 1 mps 751 mmHg 74%
    06:00 +20°C° 0 mm 1 mps 751 mmHg 68%
    07:00 +22°C° 0 mm 1 mps 751 mmHg 61%
    08:00 +24°C° 0 mm 1 mps 752 mmHg 54%
    09:00 +25°C° 0 mm 1 mps 752 mmHg 50%
    10:00 +26°C° 0 mm 1 mps 751 mmHg 45%
    11:00 +28°C° 0 mm 1 mps 751 mmHg 41%
    12:00 +28°C° 0 mm 1 mps 751 mmHg 40%
    13:00 +28°C° 0 mm 1 mps 751 mmHg 39%
    14:00 +28°C° 0 mm 1 mps 751 mmHg 38%
    15:00 +28°C° 0 mm 1 mps 751 mmHg 41%
    16:00 +27°C° 0 mm 1 mps 751 mmHg 44%
    17:00 +27°C° 0 mm 1 mps 751 mmHg 47%
    18:00 +25°C° 0 mm 1 mps 751 mmHg 53%
    19:00 +23°C° 0 mm 1 mps 750 mmHg 60%
    20:00 +21°C° 0 mm 1 mps 750 mmHg 66%
    21:00 +20°C° 0 mm 1 mps 751 mmHg 67%
    22:00 +19°C° 0 mm 1 mps 751 mmHg 69%
    23:00 +18°C° 0 mm 1 mps 751 mmHg 71%

    28 June, Thursday

    Time Temperature Precipitation Wind Pressure Humidity
    00:00 +16°C° 0 mm 1 mps 751 mmHg 73%
    01:00 +16°C° 0 mm 1 mps 751 mmHg 76%
    02:00 +15°C° 0 mm 1 mps 751 mmHg 78%
    03:00 +16°C° 0 mm 1 mps 751 mmHg 77%
    04:00 +18°C° 0 mm 1 mps 751 mmHg 76%
    05:00 +18°C° 0 mm 1 mps 752 mmHg 75%
    06:00 +20°C° 0 mm 1 mps 752 mmHg 68%
    07:00 +22°C° 0 mm 1 mps 752 mmHg 62%
    08:00 +24°C° 0 mm 1 mps 752 mmHg 55%
    09:00 +25°C° 0 mm 1 mps 751 mmHg 51%
    10:00 +26°C° 0 mm 1 mps 751 mmHg 47%
    11:00 +28°C° 0 mm 1 mps 751 mmHg 43%
    12:00 +28°C° 0 mm 1 mps 751 mmHg 42%
    13:00 +28°C° 0 mm 2 mps 750 mmHg 40%
    14:00 +28°C° 0 mm 2 mps 750 mmHg 38%
    15:00 +28°C° 0 mm 2 mps 750 mmHg 41%
    16:00 +28°C° 0 mm 2 mps 750 mmHg 43%
    17:00 +27°C° 0 mm 2 mps 749 mmHg 46%
    18:00 +25°C° 0 mm 1 mps 749 mmHg 53%
    19:00 +23°C° 0 mm 1 mps 749 mmHg 60%
    20:00 +21°C° 0 mm 1 mps 749 mmHg 66%
    21:00 +20°C° 0 mm 1 mps 749 mmHg 66%
    22:00 +19°C° 0 mm 1 mps 749 mmHg 67%
    23:00 +18°C° 0 mm 1 mps 749 mmHg 67%

    29 June, Friday

    Time Temperature Precipitation Wind Pressure Humidity
    00:00 +18°C° 0 mm 1 mps 749 mmHg 68%
    01:00 +16°C° 0 mm 1 mps 748 mmHg 70%
    02:00 +15°C° 0 mm 1 mps 748 mmHg 71%
    03:00 +16°C° 0 mm 1 mps 748 mmHg 71%
    04:00 +18°C° 0 mm 1 mps 748 mmHg 71%
    05:00 +19°C° 0 mm 1 mps 748 mmHg 71%
    06:00 +21°C° 0 mm 1 mps 748 mmHg 66%
    07:00 +23°C° 0 mm 1 mps 748 mmHg 61%
    08:00 +25°C° 0 mm 1 mps 748 mmHg 55%
    09:00 +26°C° 0 mm 2 mps 748 mmHg 52%
    10:00 +27°C° 0 mm 2 mps 747 mmHg 48%
    11:00 +28°C° 0 mm 3 mps 747 mmHg 45%
    12:00 +28°C° 0 mm 3 mps 747 mmHg 45%
    13:00 +29°C° 0 mm 3 mps 746 mmHg 44%
    14:00 +29°C° 0 mm 3 mps 746 mmHg 44%
    15:00 +29°C° 0 mm 3 mps 746 mmHg 46%
    16:00 +28°C° 0 mm 3 mps 745 mmHg 48%
    17:00 +28°C° 0 mm 3 mps 745 mmHg 50%
    18:00 +26°C° 0 mm 3 mps 745 mmHg 58%
    19:00 +24°C° 0 mm 3 mps 744 mmHg 65%
    20:00 +21°C° 0 mm 3 mps 744 mmHg 73%
    21:00 +20°C° 0 mm 3 mps 744 mmHg 74%
    22:00 +20°C° 0 mm 3 mps 744 mmHg 76%
    23:00 +19°C° 0 mm 3 mps 744 mmHg 77%
    Show more